Theta_e
302 300 299 298 296 294 293 294 294 296 295 293 293 293 293 292 292 291 292 293 293 292 292 291 290 290 289 290 289 289 289 289 291 290 290 290 290 290 291 291 292 292 292
300 299 297 295 294 292 293 293 293 293 292 293 293 293 293 293 293 292 291 290 289 289 289 288 288 288 289 289 289 289 289 289 289 290 289 290 290 290 291 291 292 292 292
298 298 296 296 294 294 294 294 294 294 294 294 294 293 292 291 290 289 288 288 287 288 288 288 287 287 287 287 286 286 286 287 287 287 288 288 288 288 288 289 289 290 290
298 297 296 295 294 294 294 294 294 293 293 293 292 292 292 291 289 288 287 288 287 287 286 286 285 285 285 285 284 284 285 285 285 286 286 286 287 287 287 288 288 288 288
298 297 297 296 296 293 292 292 292 293 293 293 292 291 287 286 287 287 287 287 287 286 286 285 284 284 283 283 283 284 284 285 285 285 285 285 286 286 286 287 287 288 288
297 294 292 292 293 292 292 291 291 290 288 286 286 285 285 286 285 286 286 286 285 284 284 283 283 282 282 282 282 283 283 283 284 284 284 285 285 285 285 285 285 286 288
293 292 292 292 290 289 288 287 287 286 286 285 285 285 285 284 283 282 283 283 283 283 282 282 282 282 282 282 282 282 282 282 282 282 283 284 284 284 284 285 285 285 286
292 293 292 290 288 288 287 286 285 285 285 284 285 284 283 282 281 281 281 281 282 281 281 281 282 282 282 282 282 282 283 283 283 283 283 283 283 283 283 284 284 285 285
292 291 289 287 287 286 286 285 284 284 284 284 282 282 282 281 280 280 280 281 281 281 281 281 282 282 282 282 282 283 283 283 283 283 283 283 283 283 283 283 284 285 286
290 289 287 286 286 285 284 284 284 283 283 282 281 281 281 280 279 279 280 280 280 281 281 281 282 282 281 282 282 282 283 282 282 284 284 284 284 284 284 284 284 285 285
288 288 287 285 285 285 284 283 283 283 282 281 281 280 280 279 279 279 279 279 280 281 281 282 282 282 281 281 280 281 281 281 281 282 283 283 284 284 284 284 284 285 285
290 287 286 285 285 284 283 283 282 282 282 281 280 280 280 279 279 278 278 279 280 281 281 282 282 280 279 279 279 279 279 279 281 281 282 283 284 284 284 284 284 285 285
288 287 286 286 285 284 283 283 283 282 282 281 281 280 279 278 278 278 278 279 279 280 281 280 279 278 278 278 278 278 278 280 280 281 283 283 284 284 285 284 284 285 284
287 287 286 286 285 285 283 283 282 282 281 280 280 279 278 278 278 278 279 279 279 280 280 279 278 277 277 277 278 278 278 279 279 280 282 282 284 284 284 285 285 285 285
287 286 286 285 284 284 283 282 282 281 279 279 279 278 277 277 277 278 278 278 278 278 278 278 277 277 277 277 277 277 278 278 279 279 281 283 284 285 284 284 285 285 285
286 286 285 284 283 282 282 281 281 280 279 277 277 277 277 276 277 277 276 276 276 276 277 276 276 276 276 276 277 277 277 277 277 278 280 281 282 284 284 284 284 285 286
285 285 284 284 282 282 281 281 280 279 278 277 276 275 275 276 276 275 275 274 274 274 275 275 275 274 275 276 276 276 276 276 276 277 278 279 280 283 284 284 285 285 285
285 285 284 282 282 281 280 279 278 278 277 277 275 274 274 274 274 274 273 273 273 273 273 274 273 273 274 274 274 275 275 276 276 276 277 277 278 282 283 283 284 285 285
284 283 283 282 281 280 279 279 278 278 277 276 275 274 273 273 273 272 272 272 272 272 271 272 272 272 272 273 273 273 274 275 275 275 276 276 277 278 280 281 282 281 283
283 282 282 282 281 280 279 279 278 277 277 276 275 274 273 273 273 272 271 271 271 270 270 271 271 271 271 272 272 272 274 274 275 275 275 276 276 277 278 279 280 281 281
282 282 282 281 280 280 279 278 277 277 276 276 275 273 272 272 272 272 271 270 270 269 269 269 270 270 270 271 271 272 272 273 273 273 274 275 275 276 277 278 279 279 279
283 282 282 280 280 279 279 277 276 276 276 275 274 273 272 272 271 271 270 269 269 268 268 268 268 269 269 269 269 270 271 272 272 272 273 274 276 276 277 277 278 278 278
282 282 281 281 280 279 279 277 276 276 276 275 274 273 272 272 271 271 270 269 269 268 268 268 268 268 268 269 270 270 270 270 271 272 272 274 275 275 276 276 276 277 276
281 281 281 281 280 279 278 278 277 276 275 275 274 273 272 272 271 271 270 269 269 268 268 268 268 268 268 268 269 269 270 271 272 272 272 272 273 273 274 275 275 275 275
281 281 281 281 280 279 278 278 277 276 275 275 274 273 272 272 271 271 270 270 270 269 268 268 267 268 268 268 268 268 269 270 271 271 272 271 271 272 272 272 272 274 273
281 281 282 281 280 279 278 277 277 277 276 275 274 273 273 272 271 271 271 270 270 269 268 268 268 268 267 267 267 268 268 268 269 269 270 270 270 270 271 271 271 272 272
Wind_Speed
14 20 23 23 23 23 18 15 7 2 4 3 5 7 10 8 9 11 7 5 5 5 6 7 10 10 10 10 13 16 17 18 14 25 22 21 23 22 22 21 22 23 22
19 19 16 17 19 15 11 8 7 7 6 6 7 11 13 14 14 10 9 8 9 9 11 11 13 13 12 12 12 14 15 17 19 21 24 23 23 23 20 19 20 21 20
17 14 13 16 14 9 9 10 11 11 9 11 12 12 14 15 16 14 13 12 12 11 10 9 10 10 12 14 16 19 20 22 23 25 26 26 25 25 27 27 26 27 27
11 8 8 10 9 10 11 12 12 14 13 15 15 15 15 15 14 16 13 11 10 10 11 12 14 15 17 19 20 21 22 23 23 24 25 26 26 26 27 27 27 27 29
8 8 9 9 8 12 11 13 13 13 14 14 14 13 12 12 10 11 9 9 12 15 18 19 19 19 21 22 23 23 22 23 23 22 23 24 23 21 22 24 26 25 27
6 5 5 7 10 13 14 15 14 14 14 14 15 15 15 11 12 10 13 15 18 20 22 23 23 22 20 19 19 20 22 24 24 23 23 22 24 23 23 23 23 22 13
3 6 8 11 12 11 12 14 15 14 13 14 13 12 11 11 15 17 18 19 21 21 21 22 22 21 20 19 19 20 21 23 25 26 27 27 27 24 23 22 22 23 23
6 8 10 11 11 12 14 14 13 13 14 13 11 11 14 16 19 19 19 19 19 20 21 21 21 21 19 18 19 21 22 23 23 25 28 29 28 27 26 26 25 25 25
9 10 10 10 12 12 12 13 13 13 12 11 13 15 16 17 18 19 18 19 20 21 20 18 18 21 20 21 22 24 25 26 24 26 29 31 33 32 29 24 23 22 17
9 10 10 11 11 11 12 12 11 11 11 13 15 15 16 17 19 18 18 19 20 19 19 19 19 20 20 19 19 22 24 23 23 18 19 23 26 30 32 33 28 22 19
12 11 11 10 11 10 11 10 11 13 11 15 16 16 15 16 17 19 19 18 18 20 20 21 19 18 14 19 19 19 20 21 21 20 20 21 20 20 21 22 27 28 23
13 11 9 10 11 11 11 11 12 12 13 15 16 17 17 17 17 21 19 19 19 21 21 18 15 12 15 16 14 14 18 17 15 16 16 17 17 18 19 20 22 23 23
11 9 8 10 11 11 11 12 13 13 13 16 18 20 20 21 19 20 22 19 21 21 18 13 12 14 13 12 12 13 12 10 11 12 12 14 14 17 16 17 19 19 21
10 8 7 8 11 12 11 11 11 13 14 16 18 19 21 21 20 22 22 22 20 13 14 8 10 11 11 11 12 12 11 11 11 10 11 13 12 11 11 12 13 13 15
10 8 7 7 9 11 9 9 10 9 11 16 17 18 19 20 22 23 22 22 15 14 8 7 9 12 13 15 15 13 12 13 12 11 11 11 9 7 5 5 8 10 12
9 6 5 7 7 8 10 11 9 10 12 12 13 14 16 17 20 19 20 17 14 10 7 9 10 11 14 15 16 15 15 15 15 14 12 12 10 8 4 2 5 7 8
6 6 6 7 6 8 11 11 12 12 12 13 14 14 15 17 17 17 19 13 13 11 10 10 11 12 13 13 14 15 15 16 15 14 14 13 12 10 6 2 3 4 6
6 6 8 5 6 9 9 10 9 11 13 14 15 15 16 16 15 16 17 13 12 14 11 11 12 12 12 13 14 15 15 16 16 16 15 14 13 10 10 8 6 2 1
8 7 7 5 8 10 9 9 8 10 12 12 14 14 16 15 13 14 15 13 11 13 13 12 12 12 12 13 14 14 14 15 16 16 15 15 14 12 10 9 6 6 3
8 8 6 6 8 8 9 9 10 11 11 12 13 14 16 15 15 15 14 13 12 12 12 13 13 13 13 13 14 14 15 16 16 16 16 15 13 11 10 9 9 6 6
8 7 5 6 8 8 8 9 9 9 10 10 11 11 13 12 12 12 12 12 12 11 12 12 12 12 13 13 13 14 14 15 15 15 15 14 13 12 10 9 8 7 6
8 6 6 7 9 8 8 8 8 8 9 9 10 10 12 10 10 10 11 11 11 10 10 11 10 11 12 12 13 13 13 14 15 15 15 13 12 12 11 9 9 8 7
6 5 5 7 9 9 8 8 8 8 8 8 8 9 9 10 9 9 10 10 11 11 13 12 11 12 13 14 15 15 14 14 14 16 14 13 12 12 11 10 10 10 9
10 10 7 7 9 10 8 7 8 9 9 7 7 7 7 7 8 8 9 10 10 11 13 13 13 14 16 16 16 16 15 15 14 14 15 13 12 11 10 9 9 9 9
8 7 6 7 8 9 11 7 8 8 8 7 7 6 6 5 5 6 7 10 11 12 12 12 13 13 14 15 16 16 15 14 14 13 13 13 13 13 12 10 9 8 9
6 6 7 7 8 10 10 8 8 8 8 7 7 7 6 6 6 6 7 7 8 10 12 11 11 12 13 13 14 14 15 15 15 14 13 13 13 13 10 10 10 9 10
Wind_Direction
339 335 331 332 337 340 342 346 359 17 326 21 39 28 15 351 346 319 314 305 289 296 279 270 268 273 275 271 268 272 271 268 270 278 275 272 272 272 271 267 263 264 264
332 326 334 350 353 356 6 21 22 14 43 34 10 358 340 324 305 311 318 314 308 301 299 293 291 290 284 283 284 279 275 274 274 276 275 272 269 272 268 265 262 260 258
335 338 350 357 356 2 7 7 11 9 10 2 351 340 336 333 328 326 323 311 299 294 293 293 293 295 292 289 286 282 279 275 271 271 272 271 267 266 267 265 261 260 261
334 339 344 346 347 341 335 329 334 341 343 344 344 328 318 312 307 303 307 304 302 298 296 293 292 291 291 290 286 281 278 275 272 269 269 269 266 263 262 264 263 258 260
330 334 336 333 342 353 358 346 336 326 322 316 315 316 324 325 324 324 323 315 307 303 299 297 295 292 288 283 279 278 276 273 271 269 268 268 267 263 256 262 264 267 265
311 349 11 348 332 337 331 331 331 332 334 337 337 334 333 337 333 325 318 311 302 298 297 297 296 294 290 286 280 272 268 271 270 267 266 266 267 264 262 259 262 264 267
313 328 320 327 336 341 340 338 335 334 337 338 339 337 336 337 331 322 314 306 297 296 297 296 295 293 290 288 284 279 274 268 263 265 269 265 267 264 263 258 253 258 262
294 313 325 332 336 336 337 336 335 334 333 331 335 339 330 323 324 323 318 308 300 299 298 294 293 294 292 287 284 285 282 275 267 260 258 262 265 264 261 258 256 262 265
291 316 327 334 330 335 337 333 330 327 331 336 334 329 325 323 326 325 323 312 306 303 300 295 292 293 289 289 287 282 283 280 274 264 260 261 261 259 257 260 250 245 252
300 313 321 325 332 334 329 324 324 326 323 328 327 328 324 323 326 329 326 315 307 306 304 300 295 288 291 294 293 293 288 286 286 284 270 268 263 260 255 248 249 246 242
283 302 314 324 329 324 319 317 321 321 315 324 325 326 324 329 329 331 328 321 313 308 306 307 303 296 299 306 301 293 289 292 286 282 277 275 268 254 253 246 241 241 244
281 283 303 315 321 317 309 311 319 322 320 326 328 331 335 334 328 329 328 326 319 312 307 303 318 317 321 316 310 304 303 297 284 278 274 271 262 256 254 248 242 242 242
263 273 292 311 316 310 305 311 318 323 326 331 332 333 334 335 332 330 327 325 325 317 313 325 323 330 331 331 328 329 332 320 303 292 285 282 275 268 262 251 242 240 242
263 274 292 308 317 315 309 311 317 327 331 333 333 332 333 333 336 336 336 333 328 330 327 334 346 351 348 347 351 350 344 336 323 309 301 298 294 290 264 247 241 236 236
275 281 288 308 321 322 323 320 326 329 338 335 336 333 334 334 335 335 339 335 340 337 346 1 4 5 7 6 359 358 354 354 352 343 332 327 321 320 294 252 241 237 237
294 294 295 318 331 336 333 332 335 341 345 348 347 344 338 335 337 343 345 347 356 356 17 16 10 9 11 2 1 1 2 360 360 354 351 348 342 331 298 265 241 241 245
322 313 317 326 331 339 339 339 338 339 350 359 359 357 353 345 350 354 355 1 15 27 30 19 17 12 4 1 5 6 2 2 2 4 1 355 352 3 10 300 250 234 237
347 335 324 314 333 339 341 341 338 340 341 347 357 2 2 1 2 5 6 17 18 22 21 17 15 10 5 4 5 5 5 8 11 9 6 4 1 358 17 24 26 4 286
327 332 337 318 331 337 342 340 341 344 345 346 351 358 360 3 10 16 19 25 15 13 9 11 11 8 5 5 6 5 4 7 12 10 9 8 9 9 12 14 19 33 54
337 336 335 338 333 336 339 341 346 351 353 353 356 357 357 0 9 11 16 17 17 13 6 5 4 7 7 7 8 10 12 13 15 15 11 8 11 16 11 14 24 37 47
329 336 354 348 343 337 336 342 349 352 352 354 356 359 3 6 5 10 12 14 12 7 6 5 5 6 7 7 10 13 14 15 13 12 9 11 14 21 15 18 31 45 53
314 307 331 340 341 339 337 343 349 351 352 352 353 355 5 11 9 11 12 12 11 11 11 9 10 9 8 7 8 11 11 13 13 10 7 10 22 25 23 24 28 32 36
336 315 319 330 337 336 333 339 347 349 347 348 352 354 1 5 8 13 9 9 11 14 19 21 19 20 20 22 22 21 15 11 13 16 13 14 22 26 27 27 30 33 33
320 312 291 319 331 333 324 326 335 340 341 339 345 351 354 359 2 8 11 12 13 15 19 24 26 27 28 30 29 27 25 24 23 24 26 25 24 25 29 29 27 31 36
310 306 296 310 326 326 324 311 321 326 331 330 333 338 344 349 348 353 360 7 7 9 11 16 21 22 26 30 32 31 31 29 28 27 29 28 33 36 36 31 31 31 32
312 311 310 300 316 326 317 305 304 313 319 319 320 328 327 335 342 345 346 348 353 360 5 9 14 17 20 23 25 27 30 32 31 30 33 33 35 36 32 33 31 34 36